TimeCDT,TemperatureF,Dew PointF,Humidity,Sea Level PressureIn,VisibilityMPH,Wind Direction,Wind SpeedMPH,Gust SpeedMPH,PrecipitationIn,Events,Conditions,WindDirDegrees,DateUTC
12:15 AM,51.8,48.2,88,30.16,10.0,NE,15.0,19.6,N/A,,Partly Cloudy,40,2012-10-07 05:15:00
12:35 AM,51.8,46.4,82,30.16,10.0,NE,13.8,20.7,N/A,,Partly Cloudy,40,2012-10-07 05:35:00
12:55 AM,51.8,46.4,82,30.16,10.0,NE,17.3,-,N/A,,Clear,40,2012-10-07 05:55:00
1:15 AM,50.0,46.4,87,30.16,10.0,NE,16.1,23.0,N/A,,Partly Cloudy,50,2012-10-07 06:15:00
1:35 AM,48.2,44.6,87,30.17,10.0,NE,17.3,24.2,N/A,,Scattered Clouds,50,2012-10-07 06:35:00
1:55 AM,46.4,42.8,87,30.17,10.0,NE,18.4,21.9,N/A,,Overcast,40,2012-10-07 06:55:00
2:15 AM,46.4,42.8,87,30.17,10.0,NE,18.4,25.3,N/A,,Overcast,40,2012-10-07 07:15:00
2:35 AM,44.6,42.8,93,30.17,10.0,NE,18.4,26.5,N/A,,Overcast,40,2012-10-07 07:35:00
2:55 AM,44.6,41.0,87,30.17,10.0,NE,21.9,25.3,N/A,,Overcast,40,2012-10-07 07:55:00
3:15 AM,44.6,41.0,87,30.18,10.0,NE,17.3,23.0,N/A,,Overcast,40,2012-10-07 08:15:00
3:35 AM,44.6,41.0,87,30.18,10.0,NE,13.8,20.7,N/A,,Overcast,40,2012-10-07 08:35:00
3:55 AM,44.6,41.0,87,30.18,10.0,NNE,15.0,23.0,N/A,,Overcast,30,2012-10-07 08:55:00
4:15 AM,44.6,39.2,81,30.19,10.0,NNE,18.4,25.3,N/A,,Overcast,20,2012-10-07 09:15:00
4:35 AM,42.8,39.2,87,30.19,10.0,NNE,16.1,-,N/A,,Overcast,20,2012-10-07 09:35:00
4:55 AM,42.8,39.2,87,30.19,10.0,NNE,16.1,21.9,N/A,,Overcast,30,2012-10-07 09:55:00
5:15 AM,42.8,39.2,87,30.19,10.0,NNE,12.7,-,N/A,,Overcast,20,2012-10-07 10:15:00
5:35 AM,42.8,39.2,87,30.20,10.0,NNE,8.1,-,N/A,,Overcast,20,2012-10-07 10:35:00
5:55 AM,42.8,39.2,87,30.20,10.0,NE,12.7,-,N/A,,Overcast,40,2012-10-07 10:55:00
6:15 AM,42.8,37.4,81,30.19,10.0,NE,13.8,-,N/A,,Overcast,40,2012-10-07 11:15:00
6:35 AM,42.8,37.4,81,30.19,10.0,NE,13.8,-,N/A,,Overcast,50,2012-10-07 11:35:00
6:55 AM,42.8,37.4,81,30.20,10.0,NE,13.8,18.4,N/A,,Overcast,40,2012-10-07 11:55:00
7:15 AM,42.8,37.4,81,30.20,10.0,NE,13.8,-,N/A,,Overcast,40,2012-10-07 12:15:00
7:35 AM,42.8,37.4,81,30.20,10.0,NE,13.8,-,N/A,,Overcast,40,2012-10-07 12:35:00
7:55 AM,42.8,37.4,81,30.21,10.0,NE,11.5,18.4,N/A,,Overcast,40,2012-10-07 12:55:00
8:15 AM,42.8,39.2,87,30.21,10.0,Calm,Calm,-,N/A,,Overcast,0,2012-10-07 13:15:00
8:35 AM,42.8,39.2,87,30.21,10.0,Calm,Calm,-,N/A,,Overcast,0,2012-10-07 13:35:00
8:55 AM,42.8,39.2,87,30.22,10.0,Calm,Calm,-,N/A,,Overcast,0,2012-10-07 13:55:00
9:15 AM,44.6,39.2,81,30.22,10.0,Calm,Calm,-,N/A,,Overcast,0,2012-10-07 14:15:00
9:55 AM,44.6,39.2,81,30.23,10.0,NE,9.2,-,N/A,,Overcast,50,2012-10-07 14:55:00
10:15 AM,44.6,37.4,76,30.23,10.0,NE,12.7,-,N/A,,Overcast,50,2012-10-07 15:15:00
10:35 AM,44.6,39.2,81,30.23,10.0,NE,12.7,-,N/A,,Overcast,50,2012-10-07 15:35:00
10:55 AM,46.4,39.2,76,30.23,10.0,NE,12.7,-,N/A,,Overcast,50,2012-10-07 15:55:00
11:15 AM,46.4,39.2,76,30.23,10.0,NE,12.7,-,N/A,,Overcast,50,2012-10-07 16:15:00
11:35 AM,48.2,41.0,76,30.24,10.0,NE,10.4,-,N/A,,Overcast,50,2012-10-07 16:35:00
11:55 AM,50.0,42.8,76,30.23,10.0,East,11.5,-,N/A,,Overcast,80,2012-10-07 16:55:00
12:35 PM,51.8,42.8,71,30.22,10.0,Calm,Calm,-,N/A,,Overcast,0,2012-10-07 17:35:00
12:55 PM,51.8,42.8,71,30.21,10.0,Calm,Calm,-,N/A,,Overcast,0,2012-10-07 17:55:00
1:15 PM,53.6,44.6,72,30.20,10.0,Calm,Calm,-,N/A,,Mostly Cloudy,0,2012-10-07 18:15:00
1:35 PM,53.6,44.6,72,30.19,10.0,Calm,Calm,-,N/A,,Partly Cloudy,0,2012-10-07 18:35:00
1:55 PM,55.4,44.6,67,30.18,10.0,Calm,Calm,-,N/A,,Clear,0,2012-10-07 18:55:00
2:15 PM,57.2,44.6,63,30.17,10.0,Calm,Calm,-,N/A,,Clear,0,2012-10-07 19:15:00
2:35 PM,59.0,44.6,59,30.16,10.0,Calm,Calm,-,N/A,,Clear,0,2012-10-07 19:35:00
2:55 PM,62.6,46.4,55,30.15,10.0,Calm,Calm,-,N/A,,Clear,0,2012-10-07 19:55:00
3:15 PM,62.6,46.4,55,30.14,10.0,Calm,Calm,-,N/A,,Clear,0,2012-10-07 20:15:00
3:35 PM,64.4,46.4,52,30.13,10.0,Calm,Calm,-,N/A,,Clear,0,2012-10-07 20:35:00
3:55 PM,64.4,46.4,52,30.12,10.0,Calm,Calm,-,N/A,,Clear,0,2012-10-07 20:55:00
4:15 PM,66.2,46.4,49,30.11,10.0,Calm,Calm,-,N/A,,Clear,0,2012-10-07 21:15:00
4:35 PM,66.2,46.4,49,30.11,10.0,Calm,Calm,-,N/A,,Clear,0,2012-10-07 21:35:00
4:55 PM,68.0,46.4,46,30.11,10.0,Calm,Calm,-,N/A,,Clear,0,2012-10-07 21:55:00
5:15 PM,68.0,46.4,46,30.11,10.0,Calm,Calm,-,N/A,,Clear,0,2012-10-07 22:15:00
5:35 PM,68.0,46.4,46,30.11,10.0,Calm,Calm,-,N/A,,Clear,0,2012-10-07 22:35:00
5:55 PM,68.0,46.4,46,30.11,10.0,Calm,Calm,-,N/A,,Clear,0,2012-10-07 22:55:00
6:15 PM,68.0,46.4,46,30.11,10.0,Calm,Calm,-,N/A,,Clear,0,2012-10-07 23:15:00
6:35 PM,68.0,46.4,46,30.11,10.0,Calm,Calm,-,N/A,,Clear,0,2012-10-07 23:35:00
6:55 PM,66.2,46.4,49,30.11,10.0,Calm,Calm,-,N/A,,Clear,0,2012-10-07 23:55:00
7:15 PM,66.2,46.4,49,30.11,10.0,Calm,Calm,-,N/A,,Clear,0,2012-10-08 00:15:00
7:55 PM,53.6,42.8,67,30.14,10.0,NNE,10.4,-,N/A,,Clear,20,2012-10-08 00:55:00
8:15 PM,53.6,42.8,67,30.14,10.0,NE,9.2,-,N/A,,Clear,40,2012-10-08 01:15:00
8:35 PM,51.8,42.8,71,30.15,10.0,Calm,Calm,-,N/A,,Clear,0,2012-10-08 01:35:00
8:55 PM,50.0,42.8,76,30.16,10.0,Calm,Calm,-,N/A,,Clear,0,2012-10-08 01:55:00
9:15 PM,48.2,41.0,76,30.16,10.0,Calm,Calm,-,N/A,,Clear,0,2012-10-08 02:15:00
9:35 PM,46.4,41.0,81,30.17,10.0,Calm,Calm,-,N/A,,Clear,0,2012-10-08 02:35:00
9:55 PM,46.4,41.0,81,30.17,10.0,Calm,Calm,-,N/A,,Clear,0,2012-10-08 02:55:00
10:15 PM,46.4,41.0,81,30.18,10.0,Calm,Calm,-,N/A,,Clear,0,2012-10-08 03:15:00
10:35 PM,44.6,41.0,87,30.18,10.0,Calm,Calm,-,N/A,,Clear,0,2012-10-08 03:35:00
10:55 PM,44.6,41.0,87,30.18,10.0,Calm,Calm,-,N/A,,Clear,0,2012-10-08 03:55:00
11:15 PM,44.6,39.2,81,30.18,10.0,Calm,Calm,-,N/A,,Clear,0,2012-10-08 04:15:00
11:35 PM,44.6,41.0,87,30.18,10.0,Calm,Calm,-,N/A,,Clear,0,2012-10-08 04:35:00
11:55 PM,44.6,41.0,87,30.18,10.0,Calm,Calm,-,N/A,,Clear,0,2012-10-08 04:55:00